Portada
METAR-TAF:

METAR-TAF

Aeroports :

Albany, Austràlia

latitud: 34-56-36S, longitud: 117-48-32E, altitud: 71 m

Observació

L'informe es va fer fa 34 minuts, a les 20:30 UTC
Vent 13 kt del Est
Temperatura 18°C
Humitat 94%
Pressió 1015 hPa
Visibilitat: 6000 m
Cel cobert a una alçada de 1200 ft
Cel cobert a una alçada de 1800 ft

METAR: YABA 022030Z AUTO 09013KT 6000 // OVC012 OVC018 18/17 Q1015

Hora: 05:04 (21:04 UTC)


TAF: manca

Observacions i pronòstics meteorològics de més de 4000 aeroports (METAR i TAF).

Les estacions disponibles són els punts grocs i vermells al mapa.

Posi el ratolí al punt desitjat per veure el nom de l'estació.

Feu clic per veure les observacions i els pronòstics meteorològics.

Per canviar el mapa: feu clic els botons verds amb una creu de color negre per apropar; al botó verd amb un guió per allunyar la imatge; o en les fletxes verdes per a mapes adjacents.


METAR-TAF: